Total_Precipitation_Accumulation
1.01 1.09 1.14 1.16 1.26 1.44 1.59 1.63 1.63 1.60 1.57 1.53 1.45 1.38 1.33 1.27 1.24 1.26 1.26 1.34 1.40 1.40 1.41 1.41 1.35 1.31 1.36 1.40 1.43 1.50 1.58 1.69 1.63 1.16 0.95 0.91 0.94 0.89 0.88 0.84 0.78 0.76 0.73
0.99 1.02 1.08 1.09 1.08 1.16 1.29 1.42 1.51 1.58 1.49 1.47 1.43 1.36 1.29 1.24 1.20 1.18 1.15 1.17 1.21 1.26 1.26 1.30 1.27 1.22 1.21 1.24 1.28 1.27 1.28 1.31 1.39 1.22 0.93 0.83 0.81 0.76 0.75 0.75 0.72 0.69 0.63
0.91 0.93 0.95 0.96 0.94 0.98 1.05 1.18 1.26 1.37 1.38 1.35 1.36 1.31 1.21 1.17 1.15 1.13 1.09 1.09 1.10 1.10 1.13 1.20 1.22 1.23 1.22 1.20 1.20 1.18 1.17 1.19 1.27 1.28 1.01 0.82 0.77 0.74 0.75 0.72 0.70 0.69 0.63
0.81 0.89 0.91 0.88 0.87 0.91 0.99 1.05 1.10 1.16 1.24 1.24 1.25 1.29 1.28 1.23 1.20 1.16 1.13 1.09 1.09 1.08 1.08 1.14 1.18 1.17 1.12 1.09 1.11 1.08 1.10 1.16 1.20 1.25 1.16 0.97 0.83 0.74 0.79 0.80 0.79 0.72 0.70
0.74 0.83 0.89 0.90 0.93 1.03 1.05 1.01 1.02 1.03 1.09 1.14 1.17 1.22 1.25 1.24 1.23 1.22 1.18 1.17 1.18 1.19 1.14 1.11 1.13 1.17 1.13 1.08 1.07 1.07 1.09 1.17 1.26 1.32 1.24 1.06 0.91 0.81 0.76 0.72 0.79 0.78 0.77
0.59 0.68 0.78 0.85 0.93 1.03 1.08 1.06 1.01 0.98 1.03 1.11 1.11 1.18 1.24 1.27 1.42 1.40 1.29 1.25 1.25 1.20 1.14 1.05 1.02 1.08 1.08 1.10 1.10 1.09 1.16 1.26 1.37 1.41 1.33 1.14 0.90 0.81 0.82 0.94 1.05 1.16 1.08
0.51 0.55 0.66 0.82 0.89 0.94 1.01 1.05 1.03 1.02 1.11 1.22 1.23 1.24 1.32 1.44 1.52 1.35 1.28 1.17 1.16 1.12 1.05 1.00 0.94 0.91 0.97 0.90 0.96 1.03 1.06 1.17 1.27 1.30 1.25 1.01 0.88 0.84 1.02 1.18 1.21 1.23 1.08
0.54 0.59 0.66 0.76 0.86 0.97 1.03 1.07 1.10 1.10 1.17 1.27 1.31 1.33 1.35 1.39 1.44 1.33 1.26 1.10 1.04 0.99 0.94 0.89 0.88 0.86 0.87 0.94 1.01 1.06 0.98 0.92 0.92 0.91 0.91 0.87 0.87 0.93 1.15 1.40 1.49 1.51 1.29
0.52 0.58 0.62 0.70 0.81 0.93 1.04 1.12 1.15 1.17 1.21 1.25 1.24 1.21 1.18 1.19 1.21 1.13 1.13 1.03 1.02 0.97 0.90 0.88 0.88 0.85 0.95 1.11 1.15 1.15 1.00 0.85 0.84 0.90 0.97 0.97 1.00 1.05 1.14 1.41 1.67 1.80 1.57
0.50 0.55 0.59 0.65 0.75 0.86 0.97 1.07 1.12 1.14 1.14 1.12 1.10 1.04 1.00 1.00 1.09 1.02 1.02 1.00 1.01 0.95 0.89 0.87 0.95 0.94 1.05 1.17 1.11 1.11 1.03 0.85 0.80 0.80 0.83 0.84 0.80 0.82 1.00 1.16 1.59 2.05 1.79
0.49 0.55 0.59 0.63 0.70 0.79 0.86 0.89 0.93 0.94 0.93 0.91 0.88 0.85 0.83 0.86 0.92 0.90 0.92 0.94 0.96 0.98 0.97 0.89 0.88 1.07 1.17 1.21 1.11 0.94 0.95 1.01 0.93 0.83 0.81 0.80 0.79 0.79 0.83 0.89 1.16 1.86 2.20
0.51 0.56 0.61 0.63 0.62 0.63 0.67 0.72 0.71 0.72 0.74 0.74 0.74 0.74 0.76 0.78 0.82 0.85 0.90 0.96 1.01 0.96 0.92 0.85 0.89 1.08 1.10 1.06 0.99 1.00 1.09 1.04 0.87 0.89 0.88 0.85 0.83 0.83 0.85 0.90 0.95 1.14 1.50
0.52 0.53 0.55 0.56 0.55 0.56 0.57 0.59 0.62 0.63 0.65 0.68 0.69 0.70 0.71 0.71 0.74 0.84 0.86 0.93 1.00 0.93 0.90 0.95 1.00 1.02 0.96 0.91 0.95 0.98 0.96 0.91 0.95 1.03 0.98 0.88 0.84 0.89 0.94 1.00 1.02 1.04 1.12
0.45 0.45 0.45 0.45 0.47 0.49 0.50 0.54 0.59 0.61 0.60 0.61 0.63 0.64 0.64 0.65 0.63 0.68 0.76 0.82 0.90 0.90 0.93 0.95 0.93 0.90 0.87 0.88 0.94 0.91 0.84 0.88 1.06 1.13 1.03 0.94 0.93 1.00 1.04 1.11 1.25 1.27 1.35
0.40 0.38 0.37 0.38 0.43 0.46 0.48 0.51 0.56 0.60 0.65 0.66 0.62 0.62 0.64 0.64 0.65 0.78 0.83 0.80 0.87 0.92 0.93 0.83 0.78 0.79 0.80 0.79 0.77 0.80 0.82 0.88 0.98 1.00 1.06 1.06 1.05 1.12 1.20 1.30 1.46 1.54 1.58
0.39 0.39 0.38 0.36 0.40 0.46 0.50 0.52 0.58 0.61 0.67 0.71 0.71 0.67 0.64 0.67 0.73 0.78 0.81 0.86 0.91 0.94 0.88 0.79 0.74 0.73 0.74 0.75 0.74 0.75 0.79 0.84 0.95 1.08 1.15 1.18 1.24 1.31 1.39 1.43 1.57 1.69 1.61
0.39 0.40 0.40 0.40 0.43 0.47 0.49 0.49 0.51 0.53 0.57 0.64 0.67 0.68 0.67 0.68 0.69 0.73 0.79 0.81 0.78 0.78 0.71 0.69 0.70 0.69 0.70 0.71 0.76 0.81 0.84 0.84 1.00 1.21 1.32 1.37 1.46 1.51 1.56 1.60 1.61 1.59 1.44
0.39 0.41 0.39 0.40 0.43 0.46 0.48 0.50 0.47 0.45 0.47 0.49 0.54 0.61 0.64 0.65 0.65 0.69 0.76 0.74 0.66 0.65 0.63 0.63 0.64 0.66 0.70 0.75 0.81 0.89 0.95 0.97 1.09 1.23 1.34 1.41 1.51 1.65 1.69 1.62 1.52 1.46 1.36
0.36 0.37 0.38 0.39 0.41 0.42 0.44 0.47 0.46 0.43 0.41 0.40 0.41 0.48 0.58 0.63 0.65 0.67 0.68 0.62 0.61 0.60 0.59 0.60 0.61 0.65 0.73 0.79 0.85 0.94 1.04 1.15 1.24 1.39 1.44 1.47 1.55 1.73 1.70 1.51 1.37 1.27 1.21
0.35 0.38 0.37 0.36 0.38 0.40 0.41 0.42 0.44 0.41 0.39 0.38 0.37 0.39 0.48 0.60 0.60 0.58 0.59 0.59 0.61 0.62 0.60 0.61 0.62 0.66 0.74 0.81 0.87 0.98 1.11 1.19 1.27 1.38 1.43 1.46 1.53 1.64 1.60 1.36 1.18 1.13 1.05
0.34 0.35 0.38 0.36 0.36 0.38 0.40 0.42 0.44 0.45 0.44 0.40 0.38 0.43 0.59 0.62 0.57 0.55 0.57 0.59 0.62 0.65 0.67 0.69 0.68 0.71 0.76 0.84 0.92 1.00 1.12 1.20 1.29 1.41 1.44 1.41 1.39 1.35 1.19 1.12 1.07 1.05 1.05
0.32 0.32 0.33 0.34 0.35 0.38 0.41 0.42 0.42 0.43 0.43 0.41 0.38 0.43 0.55 0.51 0.47 0.47 0.50 0.52 0.52 0.56 0.63 0.73 0.75 0.74 0.87 1.07 1.25 1.34 1.27 1.22 1.24 1.38 1.42 1.29 1.20 1.11 1.05 1.07 1.06 1.07 1.08
0.30 0.31 0.32 0.33 0.34 0.39 0.41 0.38 0.39 0.40 0.42 0.41 0.40 0.40 0.42 0.44 0.43 0.43 0.44 0.43 0.45 0.48 0.52 0.61 0.70 0.69 0.75 0.98 1.27 1.63 1.75 1.53 1.42 1.50 1.56 1.39 1.18 1.10 1.12 1.14 1.07 1.06 1.03
0.30 0.32 0.33 0.34 0.35 0.36 0.37 0.37 0.38 0.39 0.40 0.40 0.39 0.38 0.39 0.41 0.41 0.40 0.40 0.41 0.42 0.43 0.46 0.55 0.64 0.67 0.73 0.94 1.16 1.34 1.50 1.63 1.82 1.81 1.72 1.67 1.40 1.19 1.16 1.14 1.03 0.97 0.97
0.32 0.34 0.36 0.36 0.37 0.37 0.38 0.38 0.38 0.38 0.39 0.40 0.39 0.39 0.38 0.39 0.40 0.39 0.39 0.40 0.42 0.42 0.41 0.47 0.59 0.69 0.77 0.92 1.10 1.24 1.34 1.49 1.62 1.64 1.57 1.49 1.31 1.14 1.11 1.10 1.00 0.94 0.93
0.32 0.35 0.37 0.38 0.39 0.38 0.39 0.40 0.40 0.40 0.42 0.41 0.41 0.41 0.42 0.42 0.41 0.40 0.41 0.42 0.44 0.43 0.40 0.43 0.49 0.63 0.76 0.89 0.98 1.13 1.28 1.25 1.09 1.04 1.22 1.33 1.23 1.05 1.04 1.11 1.02 0.98 0.96